Regional Weather Roundup
Issued by NWS Cleveland, OH

Home | Current Version | Previous Version | Graphics & Text | Print | Product List | Glossary On
Versions: 1 2 3 4 5 6 7 8 9 10 11 12 13 14 15 16 17 18 19 20 21 22 23 24 25 26 27 28 29 30 31 32 33 34 35 36 37 38 39 40 41 42 43 44 45 46 47 48 49 50
000
ASUS41 KCLE 241110
RWRCLE
OHIO REGIONAL WEATHER ROUNDUP
NATIONAL WEATHER SERVICE WILMINGTON, OH
700 AM EDT THU MAY 24 2018

NOTE: "FAIR" INDICATES FEW OR NO CLOUDS BELOW 12,000 FEET WITH NO
SIGNIFICANT WEATHER AND/OR OBSTRUCTIONS TO VISIBILITY.

OHZ001>008-015>018-024>027-034-035-043-044-241200-
   NORTHWEST OHIO

CITY           SKY/WX    TMP DP  RH WIND       PRES   REMARKS
DEFIANCE       FAIR      53  51  93 CALM      30.23R
FINDLAY        FAIR      55  51  86 CALM      30.21R
TOLEDO EXPRESS FAIR      52  52 100 CALM      30.22R
TOLEDO EXEC    FAIR      56  51  84 CALM      30.23R
LIMA           FAIR      52  50  93 E3        30.22R
$$

OHZ009>014-019>023-028>033-038-089-241200-
   NORTHEAST OHIO

CITY           SKY/WX    TMP DP  RH WIND       PRES   REMARKS
CLE-HOPKINS    FAIR      53  50  89 S3        30.25R
CLE-LAKEFRONT  FAIR      58  51  78 SE3       30.22R
CUY CO. ARPT   CLEAR     54  52  94 E6        30.24
LORAIN-ELYRIA  FAIR      52  48  86 CALM      30.23R
ASHTABULA      FAIR      49  49 100 CALM      30.24R FOG
AKRON-CANTON   FAIR      55  49  80 CALM      30.23R
WOOSTER        FAIR      51  50  96 CALM      30.24R
MANSFIELD      FAIR      53  51  93 CALM      30.23R
YOUNGSTOWN     FAIR      50  49  96 CALM      30.23R
$$

OHZ042-051>053-060>062-070>072-077>081-241200-
  SOUTHWEST OHIO

CITY           SKY/WX    TMP DP  RH WIND       PRES   REMARKS
CINC-COVINGTON FAIR      62  56  80 N5        30.20R
CINC-LUNKEN    FAIR      56  56 100 CALM      30.21R
HAMILTON       FAIR      57  57 100 CALM      30.21R
DAYTON         FAIR      58  51  78 CALM      30.22R
WRIGHT-PAT AFB PTCLDY    54  52  92 CALM      30.21R
DAYTON GENERAL FAIR      58  52  80 NE6       30.20R
WILMINGTON     FAIR      56  54  93 NE7       30.20R
$$

OHZ036-037-039>041-045>050-054>059-063>069-073>076-082>088-241200-
  CENTRAL AND SOUTHEAST OHIO

CITY           SKY/WX    TMP DP  RH WIND       PRES   REMARKS
COLUMBUS       FAIR      58  50  75 CALM      30.21R
OSU AIRPORT    FAIR      56  50  80 CALM      30.21R
BOLTON FIELD   FAIR      56  51  83 CALM      30.22R
RICKENBACK AFB FAIR      55  52  90 MISG      30.21R
NEWARK         FAIR      53  52  96 CALM      30.21R
MARION         FAIR      52  50  93 CALM      30.23R
LANCASTER      FAIR      53  53 100 CALM      30.22R FOG
ZANESVILLE     FAIR      52  50  93 CALM      30.22R
NEW PHILLY     FAIR      51  51 100 CALM      30.24R FOG
$$




USA.gov is the U.S. government's official web portal to all federal, state and local government web resources and services.